[[{"header":{"parameterUnit":"m.s-1","parameterCategory":2,"la1":30.2991,"la2":30.254,"lo1":-89.0895,"lo2":-89.0444,"dy":0.0017,"dx":0.0017,"nx":28,"ny":28,"refTime":"2025-02-28T09:00:00:Z","depth":"0","parameterNumber":2,"parameterNumberName":"U-component_of_CURRENTS"},"data":[0,0,0,0,0,0,0,0,0,0,0,0,0,0,0,0,0,0,0,0,0,0,0,0,0,0,0,0,0,0,0,0,0,0,0,0,0,0,0,0,0,0,0,0,0,0,0,0,0,0,0,0,0,0,0,0,0,0,0.2822,0.2822,0,0.2757,0.2756,0.2755,0.2675,0.2674,0.2673,0.2673,0.2558,0.2556,0.2554,0,0,0,0,0,0,0,0,0,0,0,0,0,0.2817,0.2818,0.2822,0.2822,0.2821,0.2758,0.2756,0.2755,0.2675,0.2674,0.2673,0.2672,0.2559,0.2556,0.2553,0,0,0,0,0,0,0,0,0,0,0,0,0,0.2789,0.2818,0.2822,0.2777,0.2773,0.2758,0.2756,0.2755,0.2675,0.2674,0.2673,0.2672,0.256,0.2556,0.2553,0.2558,0,0,0.2543,0.2541,0,0,0,0,0,0,0,0,0.279,0.2788,0.2784,0.278,0.2775,0.2727,0.2713,0.2688,0.2676,0.2708,0.2672,0.2671,0.2614,0.2606,0.2591,0.2553,0.2548,0.2542,0.254,0.2539,0.2538,0,0,0,0,0,0,0,0.2793,0.279,0.2792,0.2784,0.2779,0.274,0.2735,0.2707,0.2664,0.2705,0.27,0.27,0.261,0.2594,0.2588,0.2546,0.2542,0.2539,0.2537,0.2536,0.2554,0.2556,0,0,0,0,0,0,0.2814,0.2793,0.2794,0.2791,0.2785,0.2742,0.2735,0.274,0.2666,0.2655,0.2701,0.2697,0.2601,0.2592,0.2583,0.2626,0.2539,0.2536,0.2534,0.2552,0.2555,0.2557,0,0,0,0,0,0,0.2814,0.2815,0.2797,0.2793,0.2789,0.2744,0.2749,0.274,0.2726,0.2664,0.2651,0.2698,0.2599,0.2588,0.2576,0.2619,0.2534,0.2531,0.2549,0.2553,0.2556,0.2686,0,0,0,0,0,0,0.2815,0.2816,0.2826,0.2795,0.279,0.2799,0.2751,0.2739,0.273,0.2723,0.2658,0.2645,0.2597,0.2581,0.2573,0.2613,0.2529,0.2545,0.255,0.2555,0.2678,0.2693,0.2706,0,0,0,0,0,0.2815,0.2833,0.2827,0.2828,0.2806,0.2801,0.2795,0.2754,0.2732,0.2735,0.2698,0.2648,0.2605,0.2581,0.2569,0.261,0.2543,0.2549,0.2554,0.2672,0.269,0.2706,0,0,0,0,0,0,0.2835,0.2827,0.2819,0.2834,0.2827,0.2789,0.279,0.2767,0.274,0.2731,0.2669,0.2656,0.2665,0.2624,0.2599,0.2633,0.257,0.2574,0.2664,0.268,0.2694,0.27,0.2526,0,0,0,0,0,0.285,0.286,0.2848,0.2862,0.2863,0.2832,0.2824,0.28,0.2774,0.2759,0.2721,0.269,0.2681,0.2669,0.2645,0.2658,0.2658,0.2682,0.2696,0.2708,0.2709,0.2759,0.2778,0.2576,0.2576,0.2576,0,0,0.2861,0.286,0.2864,0.2867,0.2856,0.2865,0.2823,0.282,0.2827,0.2753,0.2753,0.2733,0.2696,0.2713,0.2714,0.2682,0.2774,0.2715,0.2726,0.2719,0.2767,0.2787,0.2804,0.258,0.2579,0.2578,0,0,0.2888,0.2892,0.2909,0.291,0.2907,0.2894,0.2901,0.2878,0.2867,0.2869,0.2833,0.2846,0.2807,0.2808,0.2799,0.2879,0.2847,0.2875,0.2947,0.2998,0.3015,0.303,0.3091,0.311,0.2882,0.2882,0.2882,0,0.2902,0.2919,0.2914,0.2931,0.2934,0.2915,0.293,0.2928,0.2904,0.2912,0.2882,0.2883,0.2857,0.2897,0.293,0.2911,0.2934,0.2884,0.3017,0.3031,0.3044,0.3102,0.3122,0.2889,0.2888,0.2887,0.2887,0,0.2937,0.2953,0.2966,0.2983,0.2991,0.3,0.3002,0.3016,0.3004,0.2999,0.3031,0.301,0.3007,0.3023,0.2996,0.3085,0.3073,0.3031,0.2974,0.3072,0.3128,0.3146,0.2899,0.2896,0.2894,0.2893,0,0,0.2953,0.2983,0.2984,0.2995,0.3014,0.3018,0.3059,0.3083,0.3102,0.311,0.3139,0.3164,0.3155,0.3147,0.3135,0.3188,0.3319,0.3157,0.3156,0.3218,0.3451,0.342,0.3435,0.3302,0.3305,0.3308,0.3466,0,0.2976,0.3008,0.3021,0.3052,0.3067,0.308,0.3113,0.3137,0.3149,0.3178,0.32,0.3213,0.3202,0.3203,0.3266,0.3289,0.3366,0.3281,0.3344,0.3347,0.3307,0.3454,0.3303,0.3428,0.3483,0.3486,0.3488,0,0.2996,0.3014,0.3042,0.3075,0.3084,0.3102,0.3144,0.3173,0.3228,0.3238,0.3282,0.3278,0.3362,0.3322,0.3455,0.3402,0.3447,0.3474,0.3479,0.3409,0.3347,0.3331,0.3458,0.3345,0.3515,0.3513,0.3511,0,0.2983,0.3025,0.3042,0.3052,0.3093,0.3112,0.3138,0.3188,0.3212,0.3275,0.3295,0.3375,0.3409,0.3485,0.3548,0.3509,0.369,0.3632,0.366,0.3658,0.3518,0.3498,0.3535,0.3747,0.3747,0.3746,0.3746,0,0.2988,0.3,0.3033,0.3038,0.3061,0.31,0.3128,0.317,0.3226,0.3259,0.3317,0.3357,0.3452,0.3547,0.3598,0.3701,0.3739,0.371,0.3709,0.3563,0.3546,0.3427,0.3362,0.3752,0.3751,0.375,0.3749,0,0.2954,0.2983,0.2997,0.3036,0.3049,0.306,0.3106,0.3127,0.3196,0.3244,0.3265,0.3378,0.3498,0.36,0.3735,0.3762,0.3747,0.3876,0.3709,0.3684,0.3568,0.3515,0.3452,0.3361,0.3932,0.3933,0.3933,0,0.2936,0.2938,0.297,0.2972,0.2982,0.3008,0.3023,0.3095,0.312,0.3245,0.3265,0.3404,0.3466,0.3678,0.3762,0.3881,0.3758,0.3813,0.3705,0.358,0.3521,0.3384,0.3301,0.3591,0.3589,0.3587,0.3585,0,0.2885,0.289,0.2896,0.2902,0.2911,0.2928,0.2961,0.2983,0.3075,0.3127,0.3208,0.327,0.3467,0.3518,0.3695,0.3746,0.3606,0.3774,0.368,0.3304,0.3119,0.3022,0.348,0.3566,0.3568,0.357,0.3571,0.3571,0.2825,0.2811,0.2814,0.2816,0.2828,0.2836,0.2826,0.2878,0.2918,0.2983,0.3103,0.3152,0.3281,0.349,0.354,0.3509,0.3495,0.3408,0.3377,0.3268,0.31,0.3536,0.3586,0.3587,0.3589,0.3591,0.3592,0,0.273,0.2729,0.2729,0.2721,0.27,0.2742,0.2766,0.2745,0.276,0.2857,0.2913,0.2965,0.3032,0.3134,0.319,0.3115,0.2999,0.3037,0.279,0.2747,0.3172,0.3074,0.2968,0.2968,0.2969,0.2969,0.2969,0.2969,0.268,0.2643,0.2651,0.2595,0.2591,0.2538,0.2537,0.2529,0.2568,0.2565,0.2568,0.2622,0.2752,0.2864,0.2804,0.2759,0.2557,0.2459,0.2474,0.2745,0.2775,0.2803,0.2696,0.2514,0.2513,0.1926,0.1922,0.1918]},{"header":{"parameterUnit":"m.s-1","parameterCategory":2,"la1":30.2991,"la2":30.254,"lo1":-89.0895,"lo2":-89.0444,"dy":0.0017,"dx":0.0017,"nx":28,"ny":28,"refTime":"2025-02-28T09:00:00:Z","depth":"0","parameterNumber":3,"parameterNumberName":"V-component_of_CURRENTS"},"data":[0,0,0,0,0,0,0,0,0,0,0,0,0,0,0,0,0,0,0,0,0,0,0,0,0,0,0,0,0,0,0,0,0,0,0,0,0,0,0,0,0,0,0,0,0,0,0,0,0,0,0,0,0,0,0,0,0,0,0.0222,0.0222,0,0.0228,0.0228,0.0227,0.0201,0.02,0.02,0.0199,0.0128,0.0126,0.0125,0,0,0,0,0,0,0,0,0,0,0,0,0,0.0181,0.0182,0.0222,0.0222,0.0222,0.0228,0.0228,0.0227,0.0201,0.02,0.0199,0.0199,0.0128,0.0127,0.0125,0,0,0,0,0,0,0,0,0,0,0,0,0,0.0192,0.0182,0.0222,0.0211,0.0211,0.0228,0.0228,0.0227,0.0201,0.02,0.0199,0.0198,0.0129,0.0127,0.0125,0.0129,0,0,0.0118,0.0118,0,0,0,0,0,0,0,0,0.0191,0.0193,0.0213,0.0212,0.0212,0.0215,0.0187,0.0191,0.0201,0.0202,0.0199,0.0198,0.0152,0.0148,0.0149,0.0125,0.0122,0.0118,0.0117,0.0116,0.0116,0,0,0,0,0,0,0,0.019,0.0192,0.0222,0.0213,0.0213,0.0205,0.0205,0.0188,0.0178,0.0202,0.0201,0.0206,0.0151,0.0151,0.0146,0.0121,0.0118,0.0116,0.0115,0.0114,0.0102,0.0103,0,0,0,0,0,0,0.0196,0.0192,0.0221,0.0222,0.0202,0.0206,0.0207,0.0213,0.018,0.0176,0.0206,0.0204,0.0155,0.0149,0.0144,0.0173,0.0116,0.0114,0.0113,0.0101,0.0102,0.0103,0,0,0,0,0,0,0.0195,0.0199,0.0221,0.0209,0.0211,0.0208,0.0215,0.0213,0.0211,0.0185,0.0178,0.0206,0.0154,0.0147,0.0137,0.0169,0.0113,0.0111,0.01,0.0101,0.0103,0.0214,0,0,0,0,0,0,0.0194,0.0198,0.0206,0.0209,0.0212,0.0241,0.0216,0.0214,0.0217,0.0214,0.0182,0.0175,0.0153,0.0141,0.0135,0.0165,0.011,0.0099,0.0101,0.0102,0.021,0.0219,0.0228,0,0,0,0,0,0.0192,0.021,0.0206,0.021,0.0222,0.0242,0.0243,0.0236,0.0218,0.0228,0.0205,0.0176,0.0147,0.014,0.0133,0.0163,0.0098,0.01,0.0102,0.0206,0.0218,0.0228,0,0,0,0,0,0,0.0193,0.021,0.0205,0.0225,0.0237,0.0239,0.025,0.024,0.023,0.0223,0.0188,0.018,0.0183,0.0154,0.0146,0.0163,0.0118,0.0119,0.0199,0.021,0.0219,0.0242,0.0108,0,0,0,0,0,0.0199,0.0217,0.0228,0.0244,0.0252,0.0249,0.0255,0.0252,0.0245,0.024,0.0222,0.0199,0.0188,0.0183,0.0165,0.0175,0.0151,0.0188,0.0197,0.0205,0.0219,0.0215,0.0225,0.011,0.011,0.011,0,0,0.0203,0.0215,0.0224,0.0246,0.0252,0.0286,0.025,0.0267,0.0292,0.0233,0.0256,0.0227,0.0195,0.021,0.0209,0.0191,0.0225,0.0208,0.0216,0.0225,0.0218,0.0229,0.0239,0.0111,0.0111,0.0111,0,0,0.0237,0.0233,0.0268,0.0285,0.0305,0.0308,0.0315,0.0323,0.0322,0.0337,0.0304,0.03,0.0278,0.0278,0.0269,0.0316,0.0269,0.0301,0.0374,0.0371,0.038,0.0389,0.0374,0.0381,0.0311,0.0311,0.0312,0,0.024,0.029,0.028,0.0324,0.035,0.0324,0.0374,0.0373,0.0377,0.0393,0.0355,0.0352,0.0318,0.0354,0.0366,0.0341,0.032,0.0339,0.0385,0.0393,0.0399,0.0382,0.0388,0.0317,0.0316,0.0316,0.0315,0,0.0312,0.0349,0.0372,0.0422,0.0444,0.0479,0.0486,0.0498,0.0486,0.0494,0.0514,0.0472,0.0472,0.0462,0.0424,0.0464,0.0428,0.0395,0.0363,0.0418,0.0396,0.04,0.0325,0.0323,0.0321,0.032,0,0,0.033,0.0408,0.0418,0.0463,0.0501,0.0529,0.057,0.0615,0.0651,0.0636,0.0685,0.0661,0.0631,0.0618,0.0575,0.0571,0.0592,0.0506,0.0503,0.0503,0.0575,0.0543,0.0543,0.0563,0.0565,0.0566,0.0541,0,0.0393,0.0496,0.0518,0.0612,0.0668,0.0667,0.0715,0.0744,0.0748,0.0783,0.075,0.0766,0.0692,0.0688,0.0676,0.0615,0.0606,0.0601,0.0511,0.0509,0.0484,0.0549,0.0516,0.049,0.0544,0.0545,0.0545,0,0.0467,0.0528,0.0636,0.0726,0.0749,0.0795,0.0867,0.0907,0.094,0.0941,0.0949,0.0909,0.0908,0.082,0.0764,0.0761,0.0677,0.0622,0.0619,0.0555,0.0485,0.0442,0.0494,0.0332,0.055,0.055,0.0549,0,0.0506,0.0612,0.0702,0.0733,0.0825,0.0868,0.091,0.0961,0.1005,0.1038,0.1066,0.1048,0.1038,0.0949,0.0818,0.0792,0.0743,0.0692,0.0588,0.0584,0.0522,0.0511,0.0418,0.0648,0.0648,0.0649,0.0649,0,0.0578,0.0648,0.0726,0.0778,0.0879,0.0922,0.102,0.1053,0.111,0.1184,0.1145,0.1185,0.1066,0.1011,0.0876,0.0754,0.0786,0.0621,0.0587,0.0558,0.0551,0.0378,0.0294,0.0648,0.0648,0.0648,0.0648,0,0.062,0.0672,0.0775,0.0873,0.0904,0.0975,0.1076,0.1143,0.1191,0.1278,0.129,0.1296,0.1247,0.1111,0.0979,0.084,0.0626,0.0651,0.0621,0.0586,0.0343,0.0269,0.0172,0.0116,0.0555,0.0554,0.0553,0,0.066,0.0719,0.0828,0.0883,0.093,0.1028,0.1098,0.1171,0.1241,0.1349,0.1396,0.1388,0.1398,0.1208,0.0975,0.0764,0.061,0.0566,0.0514,0.0346,0.0238,0.0199,0.0157,0.047,0.0469,0.0468,0.0467,0,0.073,0.0757,0.0833,0.0936,0.1015,0.1114,0.1216,0.128,0.1378,0.1461,0.156,0.1584,0.1431,0.1234,0.0947,0.0777,0.046,0.0539,0.0375,0.0186,0.0128,0.0052,0.0459,0.0458,0.0459,0.046,0.046,0.0461,0.0762,0.0816,0.0898,0.0994,0.1085,0.1192,0.1275,0.1384,0.1509,0.1657,0.1676,0.1748,0.1434,0.1068,0.0829,0.0354,0.0403,0.0196,0.0126,0.0108,0.0038,0.0427,0.038,0.0381,0.0381,0.0382,0.0382,0,0.0796,0.0855,0.0951,0.1066,0.1161,0.1204,0.1349,0.1439,0.1586,0.1742,0.184,0.1709,0.1319,0.0912,0.0292,-0.0014,-0.0111,-0.0188,-0.0268,-0.0286,0.006,0.0037,-0.0098,-0.0098,-0.0098,-0.0098,-0.0097,-0.0097,0.0817,0.0898,0.0947,0.1102,0.1184,0.1313,0.1395,0.1533,0.1664,0.1843,0.1896,0.1916,0.1544,0.0462,-0.0255,-0.0408,-0.0608,-0.0653,-0.0721,-0.053,-0.05,-0.0472,-0.0513,-0.0761,-0.0762,-0.1037,-0.104,-0.1043]}],[{"header":{"parameterUnit":"m.s-1","parameterCategory":2,"la1":30.2991,"la2":30.254,"lo1":-89.0895,"lo2":-89.0444,"dy":0.0017,"dx":0.0017,"nx":28,"ny":28,"refTime":"2025-02-28T09:00:00:Z","depth":"2","parameterNumber":2,"parameterNumberName":"U-component_of_CURRENTS"},"data":[0,0,0,0,0,0,0,0,0,0,0,0,0,0,0,0,0,0,0,0,0,0,0,0,0,0,0,0,0,0,0,0,0,0,0,0,0,0,0,0,0,0,0,0,0,0,0,0,0,0,0,0,0,0,0,0,0,0,0.1606,0.1606,0,0.1586,0.1585,0.1585,0.156,0.156,0.156,0.156,0.1536,0.1535,0.1535,0,0,0,0,0,0,0,0,0,0,0,0,0,0.1582,0.1583,0.1606,0.1606,0.1606,0.1586,0.1585,0.1585,0.156,0.156,0.156,0.156,0.1536,0.1535,0.1534,0,0,0,0,0,0,0,0,0,0,0,0,0,0.1577,0.1583,0.1606,0.1595,0.1594,0.1586,0.1585,0.1584,0.156,0.156,0.156,0.156,0.1536,0.1535,0.1534,0.1529,0,0,0.1531,0.1531,0,0,0,0,0,0,0,0,0.1577,0.1577,0.1596,0.1595,0.1594,0.1579,0.1568,0.1567,0.156,0.1569,0.156,0.156,0.1552,0.155,0.1541,0.1528,0.1527,0.1531,0.1531,0.153,0.153,0,0,0,0,0,0,0,0.1578,0.1578,0.1594,0.1596,0.1595,0.1577,0.1576,0.1567,0.1558,0.1568,0.1567,0.1571,0.1551,0.1542,0.154,0.1527,0.1531,0.1531,0.153,0.153,0.1587,0.1589,0,0,0,0,0,0,0.159,0.1578,0.1595,0.1594,0.159,0.1578,0.1576,0.1581,0.1558,0.1556,0.1571,0.157,0.1543,0.1541,0.1539,0.161,0.153,0.153,0.1529,0.1585,0.1587,0.1589,0,0,0,0,0,0,0.159,0.1592,0.1596,0.1589,0.1588,0.1579,0.1583,0.158,0.1578,0.1561,0.1558,0.1573,0.1543,0.1541,0.1545,0.1606,0.1529,0.1528,0.1582,0.1585,0.1588,0.1702,0,0,0,0,0,0,0.1589,0.1592,0.1597,0.159,0.1589,0.1604,0.1584,0.158,0.1582,0.158,0.1562,0.1559,0.1543,0.1546,0.1544,0.1604,0.1528,0.158,0.1584,0.1587,0.1696,0.1709,0.172,0,0,0,0,0,0.1588,0.1597,0.1597,0.1599,0.1598,0.1605,0.1603,0.1592,0.1582,0.1587,0.1576,0.156,0.157,0.1546,0.1543,0.1604,0.1578,0.1583,0.1587,0.169,0.1706,0.172,0,0,0,0,0,0,0.1585,0.1596,0.1596,0.1606,0.1612,0.1602,0.1606,0.1599,0.1592,0.1591,0.1569,0.1566,0.1602,0.1578,0.1553,0.1633,0.1579,0.1583,0.1659,0.1673,0.1685,0.1711,0.1527,0,0,0,0,0,0.159,0.1601,0.1608,0.1617,0.1623,0.1615,0.1616,0.1614,0.1609,0.1605,0.1594,0.1594,0.1618,0.1623,0.1627,0.1654,0.1667,0.1697,0.1709,0.172,0.174,0.1815,0.1836,0.1605,0.1605,0.1605,0,0,0.1588,0.1599,0.1603,0.1618,0.1619,0.1637,0.1615,0.1626,0.1646,0.1604,0.1622,0.1631,0.1634,0.1678,0.1693,0.1665,0.1792,0.1726,0.1735,0.1749,0.1822,0.1845,0.1865,0.1608,0.1607,0.1607,0,0,0.1598,0.1606,0.162,0.1635,0.1652,0.1654,0.1662,0.1663,0.167,0.1688,0.1686,0.1725,0.1727,0.1761,0.1776,0.1853,0.1855,0.1863,0.1945,0.2019,0.2039,0.2057,0.2104,0.2125,0.1868,0.1869,0.1869,0,0.1596,0.162,0.1625,0.165,0.167,0.1667,0.1694,0.1703,0.1706,0.1729,0.1709,0.1779,0.1776,0.1866,0.1906,0.1885,0.1919,0.189,0.2037,0.2055,0.2071,0.2115,0.2137,0.1875,0.1874,0.1873,0.1873,0,0.1619,0.1645,0.1658,0.1693,0.1714,0.1738,0.1761,0.1781,0.179,0.1807,0.1886,0.1899,0.1947,0.1969,0.1964,0.2094,0.2078,0.2046,0.2003,0.2102,0.2141,0.2162,0.1883,0.1881,0.1879,0.1878,0,0,0.1603,0.1662,0.1669,0.1697,0.1744,0.176,0.1812,0.1862,0.19,0.1936,0.2003,0.2079,0.21,0.2121,0.2137,0.221,0.2355,0.2193,0.2194,0.2245,0.252,0.2349,0.2354,0.2361,0.2365,0.2368,0.2501,0,0.1622,0.1676,0.1706,0.1762,0.1794,0.1829,0.1875,0.1925,0.1962,0.202,0.2087,0.2151,0.2155,0.2197,0.228,0.2329,0.2416,0.2322,0.2411,0.2413,0.2255,0.2375,0.2192,0.2281,0.2521,0.2524,0.2526,0,0.1638,0.1677,0.1734,0.1807,0.1824,0.1861,0.1944,0.1985,0.2076,0.2114,0.2209,0.2244,0.2376,0.2348,0.2523,0.2468,0.2522,0.2555,0.256,0.2377,0.2282,0.2221,0.231,0.2561,0.2558,0.2555,0.2553,0,0.1625,0.1698,0.1745,0.1771,0.1849,0.189,0.1935,0.2018,0.2068,0.2183,0.2236,0.2371,0.2442,0.255,0.2612,0.2596,0.2772,0.2742,0.2645,0.2633,0.248,0.2445,0.2888,0.2888,0.2887,0.2887,0.2887,0,0.1635,0.1674,0.1743,0.1769,0.1826,0.1891,0.1959,0.2021,0.2126,0.2188,0.2289,0.2366,0.2504,0.2597,0.266,0.2703,0.2814,0.2692,0.267,0.2509,0.2477,0.2709,0.2686,0.2892,0.2891,0.289,0.2889,0,0.161,0.1658,0.1708,0.1791,0.1819,0.1858,0.1959,0.2002,0.2116,0.2205,0.2254,0.2404,0.253,0.2624,0.2778,0.2735,0.2799,0.2786,0.2565,0.2513,0.2609,0.2591,0.2723,0.2719,0.2715,0.2711,0.2709,0,0.1601,0.1623,0.1699,0.1717,0.1755,0.1821,0.1857,0.1981,0.2031,0.221,0.2246,0.241,0.2465,0.2598,0.2596,0.2653,0.2761,0.2483,0.2408,0.2634,0.2601,0.2588,0.2576,0.227,0.2264,0.2259,0.2255,0,0.1569,0.1593,0.1624,0.1663,0.1701,0.1742,0.1814,0.1857,0.1993,0.2083,0.2194,0.2258,0.2363,0.2323,0.2356,0.2363,0.2449,0.2376,0.2727,0.2297,0.2206,0.2172,0.2176,0.2211,0.2215,0.2219,0.2221,0.2223,0.1527,0.1531,0.1562,0.1593,0.1628,0.165,0.1658,0.1734,0.1809,0.1903,0.203,0.2071,0.2112,0.2068,0.2031,0.2017,0.2176,0.2111,0.2129,0.2151,0.2032,0.1934,0.1867,0.187,0.1872,0.1874,0.1875,0,0.1462,0.1474,0.1489,0.1512,0.1505,0.1568,0.1609,0.1581,0.1614,0.1735,0.1795,0.1685,0.1668,0.1763,0.1652,0.1607,0.1618,0.1577,0.161,0.1654,0.1693,0.1553,0.126,0.1258,0.1257,0.1255,0,0,0.1422,0.1406,0.1413,0.1381,0.14,0.1375,0.1379,0.1351,0.14,0.14,0.1452,0.1572,0.168,0.145,0.1413,0.1334,0.1485,0.1281,0.1776,0.1859,0.1896,0.2002,0.1833,0,0,0,0,0]},{"header":{"parameterUnit":"m.s-1","parameterCategory":2,"la1":30.2991,"la2":30.254,"lo1":-89.0895,"lo2":-89.0444,"dy":0.0017,"dx":0.0017,"nx":28,"ny":28,"refTime":"2025-02-28T09:00:00:Z","depth":"2","parameterNumber":3,"parameterNumberName":"V-component_of_CURRENTS"},"data":[0,0,0,0,0,0,0,0,0,0,0,0,0,0,0,0,0,0,0,0,0,0,0,0,0,0,0,0,0,0,0,0,0,0,0,0,0,0,0,0,0,0,0,0,0,0,0,0,0,0,0,0,0,0,0,0,0,0,0.0137,0.0136,0,0.0053,0.0052,0.0051,-0.002,-0.0021,-0.0021,-0.0022,-0.0129,-0.0132,-0.0134,0,0,0,0,0,0,0,0,0,0,0,0,0,0.017,0.017,0.0137,0.0136,0.0135,0.0054,0.0052,0.0051,-0.002,-0.0021,-0.0021,-0.0022,-0.0129,-0.0131,-0.0134,0,0,0,0,0,0,0,0,0,0,0,0,0,0.0125,0.017,0.0137,0.0093,0.0088,0.0054,0.0052,0.005,-0.002,-0.0021,-0.0022,-0.0022,-0.0128,-0.0131,-0.0135,-0.0142,0,0,-0.0146,-0.0147,0,0,0,0,0,0,0,0,0.0128,0.0123,0.01,0.0096,0.009,0.0029,0.0024,-0.0014,-0.002,0.0017,-0.0022,-0.0023,-0.0076,-0.0084,-0.0102,-0.0147,-0.0152,-0.0146,-0.0148,-0.015,-0.0151,0,0,0,0,0,0,0,0.0131,0.0126,0.01,0.0099,0.0093,0.0055,0.0048,0.0016,-0.0027,0.0014,0.001,0.0006,-0.0079,-0.0099,-0.0105,-0.0153,-0.0146,-0.0149,-0.0151,-0.0153,-0.0243,-0.0244,0,0,0,0,0,0,0.0152,0.013,0.0103,0.0098,0.0111,0.0055,0.0047,0.0047,-0.0026,-0.0037,0.0006,0.0003,-0.0092,-0.0101,-0.0109,-0.0144,-0.015,-0.0153,-0.0155,-0.0243,-0.0243,-0.0244,0,0,0,0,0,0,0.0153,0.0151,0.0107,0.0114,0.0106,0.0056,0.0056,0.0046,0.002,-0.0031,-0.0043,-0.0008,-0.0093,-0.0104,-0.015,-0.0148,-0.0155,-0.0158,-0.0243,-0.0243,-0.0244,-0.0199,0,0,0,0,0,0,0.0155,0.0152,0.0154,0.0116,0.0107,0.009,0.0057,0.0045,0.0021,0.0015,-0.0048,-0.0058,-0.0094,-0.0144,-0.0153,-0.0153,-0.0161,-0.0243,-0.0243,-0.0244,-0.02,-0.0198,-0.0196,0,0,0,0,0,0.0156,0.0173,0.0155,0.0151,0.0114,0.0091,0.0082,0.0041,0.0022,0.0015,-0.0037,-0.0057,-0.0153,-0.0147,-0.0158,-0.0158,-0.0242,-0.0243,-0.0243,-0.0201,-0.0198,-0.0196,0,0,0,0,0,0,0.0185,0.0166,0.0146,0.0154,0.0124,0.008,0.0076,0.0045,-0.0001,-0.0008,-0.0064,-0.0078,-0.0117,-0.0144,-0.0136,-0.0187,-0.0199,-0.0202,-0.0163,-0.0161,-0.0159,-0.0129,-0.0164,0,0,0,0,0,0.0195,0.0202,0.0169,0.0173,0.0165,0.0118,0.0102,0.0075,0.0034,0.0012,-0.0038,-0.0086,-0.0125,-0.0148,-0.0188,-0.0214,-0.0226,-0.0221,-0.0219,-0.0217,-0.02,-0.0211,-0.0207,-0.0246,-0.0246,-0.0246,0,0,0.0205,0.0198,0.0199,0.0179,0.0155,0.0143,0.0106,0.0091,0.0069,0.001,-0.0038,-0.0081,-0.0132,-0.0167,-0.0186,-0.0191,-0.0217,-0.0218,-0.0215,-0.02,-0.0211,-0.0207,-0.0203,-0.0246,-0.0246,-0.0246,0,0,0.0238,0.0226,0.0241,0.0223,0.0197,0.0167,0.0165,0.0117,0.0084,0.0038,-0.0011,-0.0052,-0.0118,-0.0154,-0.0179,-0.0186,-0.0205,-0.0199,-0.0163,-0.0173,-0.017,-0.0167,-0.0191,-0.0191,-0.0196,-0.0196,-0.0196,0,0.0247,0.0262,0.0239,0.0246,0.0234,0.0181,0.0184,0.0144,0.008,0.0058,0.0031,-0.0061,-0.011,-0.0143,-0.0151,-0.018,-0.0189,-0.0168,-0.0168,-0.0165,-0.0163,-0.0189,-0.0188,-0.0194,-0.0194,-0.0195,-0.0195,0,0.0287,0.0291,0.0301,0.0289,0.0272,0.0268,0.0219,0.0187,0.0141,0.0098,0.0049,-0.0019,-0.0065,-0.0093,-0.0127,-0.0135,-0.015,-0.0163,-0.0168,-0.0156,-0.0185,-0.0185,-0.0191,-0.0192,-0.0193,-0.0193,0,0,0.0316,0.0328,0.0327,0.0331,0.0296,0.0288,0.0257,0.0217,0.0206,0.0132,0.0114,0.0033,0.0006,-0.0023,-0.007,-0.0087,-0.0095,-0.011,-0.0112,-0.0123,-0.0121,-0.0178,-0.0184,-0.0101,-0.01,-0.01,-0.0154,0,0.0346,0.0381,0.0369,0.0378,0.0387,0.0338,0.0317,0.0273,0.0225,0.0192,0.0122,0.0089,0.003,0.0019,-0.001,-0.0072,-0.0091,-0.008,-0.0141,-0.0143,-0.0185,-0.0185,-0.0142,-0.0189,-0.0154,-0.0154,-0.0154,0,0.0378,0.04,0.0428,0.0432,0.0432,0.0423,0.0394,0.037,0.0312,0.0279,0.0237,0.0187,0.0135,0.0095,0.0006,0.0021,-0.0038,-0.0089,-0.0092,-0.0155,-0.02,-0.0195,-0.0191,-0.0155,-0.0155,-0.0155,-0.0155,0,0.0411,0.0433,0.0462,0.0461,0.0457,0.0454,0.0441,0.0395,0.0394,0.0343,0.0347,0.0269,0.0247,0.0163,0.004,0.0037,-0.0054,-0.0075,-0.0183,-0.0188,-0.0169,-0.0173,-0.0116,-0.0116,-0.0116,-0.0116,-0.0116,0,0.0442,0.046,0.0484,0.0496,0.0527,0.0503,0.0522,0.0493,0.048,0.0495,0.0406,0.0417,0.0272,0.0194,0.0075,-0.0064,-0.0029,-0.0172,-0.0201,-0.0157,-0.016,-0.014,-0.0142,-0.0118,-0.0118,-0.0117,-0.0117,0,0.0461,0.0479,0.0514,0.0535,0.0544,0.0561,0.0586,0.0605,0.0583,0.0605,0.0601,0.0537,0.0439,0.0271,0.0129,-0.001,-0.0146,-0.02,-0.0154,-0.0177,-0.0281,-0.028,-0.0318,-0.0321,-0.0322,-0.0324,-0.0326,0,0.0472,0.0497,0.0547,0.0577,0.0586,0.0618,0.0646,0.0648,0.0683,0.0685,0.0712,0.0635,0.0577,0.0319,0.0089,-0.0143,-0.0158,-0.027,-0.0277,-0.0275,-0.0299,-0.0295,-0.0292,-0.0238,-0.0238,-0.0239,-0.0239,0,0.0489,0.0509,0.0544,0.0615,0.0657,0.0716,0.0763,0.0818,0.0828,0.0865,0.0903,0.0859,0.0607,0.0386,0.0042,-0.0105,-0.0239,-0.0289,-0.0277,-0.0204,-0.0206,-0.0228,-0.0226,-0.0243,-0.0243,-0.0243,-0.0242,-0.0242,0.0494,0.0528,0.0586,0.0651,0.0713,0.0806,0.0872,0.0945,0.1033,0.1067,0.1022,0.0947,0.0668,0.0244,-0.0002,-0.0252,-0.0259,-0.0355,-0.035,-0.0345,-0.0337,-0.0343,-0.0405,-0.0406,-0.0406,-0.0406,-0.0407,0,0.05,0.0551,0.0617,0.0708,0.0791,0.0822,0.0946,0.101,0.1137,0.1143,0.1137,0.0866,0.0594,0.0312,-0.0061,-0.0322,-0.0305,-0.0384,-0.03,-0.0296,-0.0293,-0.0278,-0.0333,-0.0333,-0.0333,-0.0333,0,0,0.0505,0.0571,0.0618,0.0757,0.083,0.0958,0.1043,0.114,0.1189,0.1196,0.115,0.0978,0.0652,0.0388,0.007,-0.0116,-0.0142,-0.015,-0.0188,-0.0047,-0.0039,-0.0262,-0.0236,0,0,0,0,0]}],[{"header":{"parameterUnit":"m.s-1","parameterCategory":2,"la1":30.2991,"la2":30.254,"lo1":-89.0895,"lo2":-89.0444,"dy":0.0017,"dx":0.0017,"nx":28,"ny":28,"refTime":"2025-02-28T09:00:00:Z","depth":"4","parameterNumber":2,"parameterNumberName":"U-component_of_CURRENTS"},"data":[0,0,0,0,0,0,0,0,0,0,0,0,0,0,0,0,0,0,0,0,0,0,0,0,0,0,0,0,0,0,0,0,0,0,0,0,0,0,0,0,0,0,0,0,0,0,0,0,0,0,0,0,0,0,0,0,0,0,0.0617,0.0617,0,0.0643,0.0644,0.0644,0.0687,0.0688,0.0688,0.0689,0.0785,0.0787,0.0789,0,0,0,0,0,0,0,0,0,0,0,0,0,0.0628,0.0628,0.0617,0.0617,0.0617,0.0643,0.0644,0.0644,0.0687,0.0688,0.0688,0.0689,0.0785,0.0787,0.079,0,0,0,0,0,0,0,0,0,0,0,0,0,0.0638,0.0628,0.0617,0.064,0.0642,0.0643,0.0644,0.0645,0.0687,0.0688,0.0688,0.0689,0.0784,0.0787,0.079,0.0792,0,0,0.0799,0.0801,0,0,0,0,0,0,0,0,0.0637,0.0638,0.0637,0.0638,0.0641,0.066,0.0683,0.0697,0.0687,0.0672,0.0689,0.069,0.0748,0.0754,0.076,0.0797,0.0801,0.08,0.0802,0.0803,0.0804,0,0,0,0,0,0,0,0.0637,0.0637,0.063,0.0636,0.0639,0.0657,0.0659,0.0686,0.0709,0.0674,0.0676,0.0675,0.075,0.0756,0.0762,0.0803,0.08,0.0802,0.0804,0.0805,0.0991,0.0994,0,0,0,0,0,0,0.0626,0.0636,0.0629,0.0631,0.0638,0.0655,0.0658,0.0655,0.0707,0.0714,0.0674,0.0677,0.0751,0.0759,0.0766,0.0869,0.0803,0.0806,0.0808,0.0988,0.0991,0.0995,0,0,0,0,0,0,0.0626,0.0625,0.0628,0.0632,0.0634,0.0654,0.0651,0.0655,0.0687,0.0706,0.0715,0.0703,0.0752,0.0762,0.0824,0.087,0.0807,0.081,0.0984,0.0989,0.0993,0.1014,0,0,0,0,0,0,0.0626,0.0625,0.0636,0.0631,0.0633,0.0643,0.065,0.0655,0.0682,0.0687,0.0734,0.0742,0.0753,0.082,0.0828,0.0873,0.0812,0.098,0.0986,0.0992,0.1009,0.1018,0.1026,0,0,0,0,0,0.0626,0.0631,0.0636,0.0636,0.0641,0.0643,0.0647,0.0665,0.0683,0.0698,0.0743,0.0742,0.0863,0.0824,0.0833,0.088,0.0977,0.0984,0.0991,0.1005,0.1017,0.1026,0,0,0,0,0,0,0.0639,0.0635,0.0641,0.0644,0.065,0.065,0.0667,0.0679,0.0724,0.0744,0.0765,0.0777,0.085,0.087,0.0826,0.0957,0.0926,0.0935,0.0935,0.0945,0.0954,0.0944,0.0815,0,0,0,0,0,0.0644,0.0652,0.0647,0.0654,0.0658,0.0669,0.0679,0.0692,0.072,0.0741,0.0768,0.0823,0.0881,0.0915,0.0955,0.1018,0.1003,0.1063,0.1072,0.1079,0.1082,0.1085,0.1092,0.1017,0.1017,0.1017,0,0,0.065,0.065,0.0655,0.0658,0.0667,0.0671,0.0679,0.0701,0.0719,0.0745,0.0793,0.0844,0.0904,0.0976,0.1013,0.1,0.1096,0.1087,0.1092,0.1092,0.1093,0.1099,0.1105,0.1022,0.1021,0.102,0,0,0.0655,0.0667,0.0673,0.0679,0.0694,0.0696,0.0707,0.0721,0.0748,0.0796,0.0835,0.0907,0.0979,0.103,0.1069,0.1151,0.1134,0.119,0.1229,0.1232,0.1237,0.1241,0.1226,0.1229,0.1201,0.1201,0.1201,0,0.0666,0.0667,0.0677,0.0681,0.0691,0.0708,0.0717,0.074,0.0776,0.0807,0.0819,0.0962,0.1,0.1108,0.115,0.1166,0.1164,0.1175,0.1237,0.1241,0.1245,0.1229,0.1231,0.1203,0.1203,0.1203,0.1202,0,0.0665,0.0677,0.0682,0.0692,0.0705,0.072,0.0739,0.0766,0.0804,0.0831,0.094,0.101,0.1106,0.1138,0.1172,0.1254,0.1242,0.1233,0.1194,0.1252,0.1234,0.1235,0.1206,0.1205,0.1204,0.1204,0,0,0.0655,0.0679,0.0681,0.0692,0.0718,0.0723,0.0759,0.0795,0.0832,0.0901,0.0971,0.1091,0.1155,0.1207,0.1275,0.1289,0.1311,0.1289,0.1288,0.1244,0.1314,0.123,0.1223,0.1314,0.1315,0.1315,0.1287,0,0.0654,0.0666,0.0681,0.0699,0.0706,0.0737,0.0767,0.0811,0.0862,0.0929,0.1035,0.1135,0.1179,0.126,0.1287,0.1322,0.132,0.1319,0.1291,0.129,0.1182,0.1224,0.1318,0.1288,0.1288,0.1288,0.1289,0,0.0641,0.0654,0.0675,0.0709,0.0717,0.0736,0.0792,0.0829,0.0922,0.0974,0.1095,0.118,0.13,0.1297,0.1364,0.1371,0.135,0.1338,0.1336,0.1249,0.1209,0.1225,0.1291,0.1291,0.1291,0.1291,0.1291,0,0.0615,0.0645,0.0667,0.0677,0.0718,0.0747,0.0782,0.0852,0.0897,0.1029,0.1078,0.1227,0.1315,0.1338,0.1351,0.1376,0.1348,0.137,0.1258,0.1251,0.1321,0.1317,0.1354,0.1354,0.1354,0.1354,0.1355,0,0.0593,0.0607,0.0664,0.0668,0.0702,0.0751,0.0808,0.085,0.095,0.1009,0.1132,0.1201,0.1326,0.1342,0.1345,0.1304,0.1346,0.1265,0.1241,0.1334,0.1332,0.1321,0.1318,0.1353,0.1354,0.1354,0.1354,0,0.0551,0.0587,0.0606,0.0664,0.0687,0.0718,0.0803,0.0843,0.0935,0.1019,0.1076,0.1196,0.1244,0.1282,0.1299,0.1278,0.1244,0.1189,0.1263,0.1243,0.1155,0.1154,0.1126,0.1123,0.112,0.1118,0.1116,0,0.0527,0.0538,0.0593,0.0612,0.0642,0.0704,0.0741,0.0833,0.0876,0.0999,0.1027,0.1117,0.1188,0.1138,0.1184,0.1164,0.1137,0.1108,0.1174,0.1153,0.1133,0.1136,0.1139,0.1112,0.1111,0.111,0.1109,0,0.0477,0.0508,0.0523,0.0567,0.0605,0.0643,0.0708,0.0734,0.0847,0.0926,0.0989,0.104,0.1062,0.1111,0.1063,0.1048,0.1148,0.1081,0.1088,0.1151,0.1136,0.1119,0.1125,0.11,0.1102,0.1102,0.1103,0,0.0439,0.0441,0.0476,0.051,0.0554,0.0582,0.0621,0.0684,0.0739,0.0881,0.0893,0.0972,0.1058,0.1042,0.1003,0.0987,0.1015,0.1005,0.1017,0.1027,0.1009,0.0976,0.0871,0,0,0,0,0,0.04,0.0401,0.0423,0.0447,0.0493,0.0524,0.0596,0.0645,0.0748,0.0774,0.0843,0.0871,0.0903,0.0931,0.0901,0.0952,0.0994,0.0912,0.0982,0.1049,0.106,0.1048,0,0,0,0,0,0,0.037,0.0383,0.0395,0.0398,0.0418,0.0456,0.0505,0.0573,0.0597,0.0712,0.0726,0.0818,0.0841,0.0907,0.0884,0.089,0.0919,0.0957,0.0955,0.1043,0.1053,0.1061,0.1053,0,0,0,0,0]},{"header":{"parameterUnit":"m.s-1","parameterCategory":2,"la1":30.2991,"la2":30.254,"lo1":-89.0895,"lo2":-89.0444,"dy":0.0017,"dx":0.0017,"nx":28,"ny":28,"refTime":"2025-02-28T09:00:00:Z","depth":"4","parameterNumber":3,"parameterNumberName":"V-component_of_CURRENTS"},"data":[0,0,0,0,0,0,0,0,0,0,0,0,0,0,0,0,0,0,0,0,0,0,0,0,0,0,0,0,0,0,0,0,0,0,0,0,0,0,0,0,0,0,0,0,0,0,0,0,0,0,0,0,0,0,0,0,0,0,0.0166,0.0166,0,0.0129,0.0129,0.0128,0.0119,0.0119,0.0119,0.012,0.0062,0.006,0.0058,0,0,0,0,0,0,0,0,0,0,0,0,0,0.0173,0.0173,0.0166,0.0166,0.0165,0.013,0.0129,0.0128,0.0119,0.0119,0.0119,0.012,0.0062,0.006,0.0058,0,0,0,0,0,0,0,0,0,0,0,0,0,0.0155,0.0173,0.0166,0.0157,0.0156,0.013,0.0129,0.0128,0.0118,0.0119,0.0119,0.012,0.0063,0.006,0.0058,0.0031,0,0,0.0049,0.0048,0,0,0,0,0,0,0,0,0.0156,0.0155,0.0159,0.0158,0.0156,0.013,0.011,0.0095,0.0118,0.0131,0.012,0.012,0.0083,0.0079,0.0069,0.0028,0.0025,0.0049,0.0047,0.0046,0.0045,0,0,0,0,0,0,0,0.0157,0.0156,0.015,0.0158,0.0157,0.0136,0.0135,0.0107,0.0103,0.013,0.013,0.0128,0.0082,0.0072,0.0068,0.0025,0.0049,0.0047,0.0045,0.0044,-0.009,-0.0092,0,0,0,0,0,0,0.0167,0.0157,0.0151,0.0149,0.0159,0.0136,0.0134,0.0137,0.0104,0.01,0.0127,0.0127,0.0076,0.0071,0.0066,0.0023,0.0046,0.0044,0.0042,-0.0088,-0.009,-0.0092,0,0,0,0,0,0,0.0167,0.0167,0.0153,0.0153,0.015,0.0136,0.0139,0.0136,0.0128,0.0102,0.0098,0.0122,0.0077,0.007,0.0038,0.0021,0.0042,0.004,-0.0086,-0.0089,-0.0091,-0.0057,0,0,0,0,0,0,0.0168,0.0167,0.0172,0.0154,0.0151,0.0139,0.0138,0.0135,0.0126,0.0126,0.0096,0.0092,0.0077,0.0042,0.0035,0.0018,0.0038,-0.0083,-0.0087,-0.009,-0.0055,-0.0058,-0.006,0,0,0,0,0,0.0168,0.0171,0.0173,0.0172,0.0158,0.0139,0.0135,0.0125,0.0126,0.012,0.0098,0.0093,0.0014,0.0039,0.0031,0.0013,-0.0082,-0.0086,-0.009,-0.0054,-0.0057,-0.006,0,0,0,0,0,0,0.0176,0.017,0.0171,0.0173,0.016,0.0138,0.0134,0.0125,0.0103,0.0103,0.008,0.0073,0.0037,0.0011,0.004,-0.0043,-0.004,-0.0046,-0.001,-0.0014,-0.0016,-0.0007,0.0035,0,0,0,0,0,0.0181,0.0183,0.0171,0.0172,0.0168,0.0151,0.0143,0.0134,0.0113,0.0105,0.0083,0.0048,0.001,-0.0008,-0.0042,-0.008,-0.0104,-0.0106,-0.0108,-0.0109,-0.0112,-0.0162,-0.0168,-0.0106,-0.0106,-0.0106,0,0,0.0185,0.0182,0.0184,0.0174,0.0165,0.0154,0.0147,0.0134,0.0122,0.01,0.0076,0.0045,-0.0002,-0.0043,-0.0064,-0.0063,-0.0141,-0.0115,-0.0115,-0.0117,-0.0167,-0.0172,-0.0177,-0.0109,-0.0109,-0.0108,0,0,0.0188,0.0192,0.0192,0.0182,0.0169,0.0156,0.0154,0.0132,0.012,0.0091,0.0067,0.0026,-0.0024,-0.0063,-0.0089,-0.0131,-0.0148,-0.0149,-0.0152,-0.0201,-0.0205,-0.021,-0.024,-0.0247,-0.0154,-0.0154,-0.0154,0,0.0194,0.0194,0.0187,0.0181,0.0175,0.0159,0.0152,0.0133,0.0102,0.0087,0.0086,-0.0007,-0.0037,-0.0101,-0.0114,-0.0134,-0.0156,-0.0127,-0.02,-0.0205,-0.021,-0.024,-0.0248,-0.0152,-0.0153,-0.0153,-0.0153,0,0.0191,0.0193,0.0191,0.0182,0.0172,0.0164,0.0142,0.0126,0.0111,0.0088,0.0031,-0.0018,-0.0074,-0.0098,-0.0113,-0.0176,-0.0178,-0.0188,-0.018,-0.0213,-0.0244,-0.0253,-0.0151,-0.0151,-0.0152,-0.0152,0,0,0.0199,0.0193,0.0192,0.0194,0.0174,0.0166,0.0144,0.0116,0.0101,0.0057,0.0022,-0.005,-0.0075,-0.011,-0.0148,-0.0191,-0.0238,-0.0199,-0.0203,-0.0207,-0.0332,-0.0279,-0.0284,-0.0253,-0.0255,-0.0256,-0.0335,0,0.02,0.0198,0.0189,0.0186,0.0184,0.0165,0.0148,0.0119,0.0091,0.0054,-0.0012,-0.0058,-0.0082,-0.0109,-0.0159,-0.0219,-0.0263,-0.0215,-0.032,-0.0323,-0.0253,-0.0293,-0.0262,-0.0342,-0.0344,-0.0345,-0.0346,0,0.0197,0.0199,0.0199,0.0195,0.0193,0.0187,0.0162,0.0144,0.0087,0.0062,-0.0001,-0.0047,-0.0128,-0.0137,-0.026,-0.0226,-0.0277,-0.0321,-0.0325,-0.0294,-0.0288,-0.0309,-0.0364,-0.0362,-0.0361,-0.036,-0.0359,0,0.0205,0.0204,0.021,0.0208,0.0198,0.0194,0.0187,0.0147,0.0135,0.0067,0.0048,-0.0057,-0.0102,-0.0194,-0.0273,-0.0274,-0.039,-0.0407,-0.0413,-0.0409,-0.0445,-0.044,-0.0495,-0.0495,-0.0495,-0.0494,-0.0494,0,0.0206,0.021,0.022,0.0222,0.023,0.0216,0.0212,0.0187,0.0152,0.0136,0.0057,0.0017,-0.0115,-0.0192,-0.0276,-0.036,-0.0397,-0.042,-0.0431,-0.0429,-0.0422,-0.0451,-0.0444,-0.0497,-0.0497,-0.0496,-0.0496,0,0.0206,0.0213,0.0223,0.0229,0.0236,0.0242,0.0246,0.0241,0.0208,0.0183,0.0164,0.0066,-0.0038,-0.0153,-0.0298,-0.0347,-0.0444,-0.0461,-0.0435,-0.0442,-0.0435,-0.0426,-0.0501,-0.05,-0.0499,-0.0498,-0.0497,0,0.0202,0.0211,0.0237,0.0253,0.0259,0.0273,0.0283,0.0267,0.0263,0.0215,0.0201,0.0106,0.0031,-0.0128,-0.0256,-0.0412,-0.0424,-0.0466,-0.0474,-0.0434,-0.0439,-0.0431,-0.0425,-0.0496,-0.0496,-0.0495,-0.0495,0,0.0196,0.0212,0.0225,0.0266,0.0289,0.0309,0.0323,0.0327,0.0308,0.0286,0.0237,0.0146,0.0037,-0.0111,-0.0213,-0.0329,-0.044,-0.0457,-0.046,-0.0469,-0.0429,-0.0433,-0.0427,-0.0492,-0.0492,-0.0493,-0.0493,0,0.0194,0.0206,0.0237,0.027,0.0305,0.0332,0.0338,0.0341,0.0338,0.0297,0.0282,0.016,0.0084,-0.0067,-0.0171,-0.0267,-0.0308,-0.0333,-0.0344,-0.0349,-0.0275,-0.02,-0.0209,0,0,0,0,0,0.0189,0.0208,0.024,0.0276,0.0315,0.0338,0.0358,0.0361,0.0354,0.0336,0.0313,0.0215,0.0061,-0.0022,-0.0112,-0.0177,-0.0336,-0.0285,-0.0373,-0.0474,-0.0478,-0.0411,0,0,0,0,0,0,0.0185,0.0214,0.0235,0.028,0.031,0.0348,0.0366,0.0363,0.0349,0.0332,0.0245,0.0212,0.0048,0.0116,-0.0108,-0.0141,-0.0204,-0.0363,-0.0364,-0.0472,-0.0475,-0.0478,-0.0411,0,0,0,0,0]}]]